FW8007 Weather Reports


time (UTC)temp
F
wind
direction
speed
knots
gust
knots
rain 1hr
in
rain 24hr
in
rain mn
in
humidity
%
barometer
mb
20260502163520 73 212 0.9 6.1 0.00 0.00 0.00 44 1016.3
20260502163035 74 205 2.6 6.1 0.00 0.00 0.00 44 1016.4
20260502162522 73 67 0.0 3.5 0.00 0.00 0.00 45 1016.5
20260502162017 73 101 0.9 4.3 0.00 0.00 0.00 44 1016.6
20260502161539 74 140 0.9 7.8 0.00 0.00 0.00 44 1016.7
20260502161021 74 98 1.7 7.8 0.00 0.00 0.00 43 1016.8
20260502160521 74 116 1.7 7.8 0.00 0.00 0.00 44 1017.0
20260502152020 74 197 1.7 7.0 0.00 0.00 0.00 43 1017.2
20260502151537 74 271 0.9 7.0 0.00 0.00 0.00 44 1017.3
20260502151018 74 263 2.6 7.8 0.00 0.00 0.00 42 1017.4
20260502150518 74 177 0.9 8.7 0.00 0.00 0.00 43 1017.3
20260502130521 75 0 2.6 8.7 0.00 0.00 0.00 43 1018.5
20260502123516 75 182 2.6 7.8 0.00 0.00 0.00 44 1018.9
20260502123036 75 261 2.6 7.8 0.00 0.00 0.00 44 1018.9
20260502122519 75 288 2.6 7.8 0.00 0.00 0.00 47 1018.8
20260502122021 75 289 1.7 7.8 0.00 0.00 0.00 46 1018.9
20260502121536 75 240 1.7 10.4 0.00 0.00 0.00 43 1019.2
20260502121018 75 341 3.5 10.4 0.00 0.00 0.00 44 1019.2
20260502120518 75 222 3.5 9.6 0.00 0.00 0.00 43 1019.3
20260502115520 75 208 1.7 7.0 0.00 0.00 0.00 42 1019.4
20260502115019 75 207 1.7 8.7 0.00 0.00 0.00 44 1019.4
20260502114541 75 205 2.6 9.6 0.00 0.00 0.00 45 1019.4
20260502114017 75 253 2.6 9.6 0.00 0.00 0.00 42 1019.4
20260502113519 75 340 1.7 7.8 0.00 0.00 0.00 45 1019.5
20260502113037 75 101 2.6 7.8 0.00 0.00 0.00 43 1019.5
20260502112518 75 303 0.9 6.1 0.00 0.00 0.00 46 1019.6
20260502112016 74 201 0.9 6.1 0.00 0.00 0.00 43 1019.6
20260502111538 74 201 1.7 7.0 0.00 0.00 0.00 45 1019.6
20260502111018 75 170 1.7 9.6 0.00 0.00 0.00 41 1019.6
20260502110518 74 134 2.6 9.6 0.00 0.00 0.00 42 1019.6
20260502110037 74 132 2.6 7.8 0.00 0.00 0.00 41 1019.6
20260502105521 74 16 1.7 6.1 0.00 0.00 0.00 42 1019.7
20260502105019 74 120 1.7 6.1 0.00 0.00 0.00 40 1019.6
20260502104543 74 186 1.7 6.1 0.00 0.00 0.00 44 1019.7
20260502104017 74 306 1.7 6.1 0.00 0.00 0.00 42 1019.8
20260502103516 73 169 1.7 6.1 0.00 0.00 0.00 46 1020.0
20260502103041 72 130 1.7 6.1 0.00 0.00 0.00 42 1020.1
20260502102518 72 242 1.7 6.1 0.00 0.00 0.00 42 1020.3
20260502102018 72 209 1.7 6.1 0.00 0.00 0.00 43 1020.2
20260502101600 72 0 0.9 6.1 0.00 0.00 0.00 41 1020.2
20260502101018 72 181 0.9 6.1 0.00 0.00 0.00 42 1020.1
20260502100518 71 120 1.7 6.1 0.00 0.00 0.00 43 1020.4
20260502091019 69 0 0.9 4.3 0.00 0.00 0.00 46 1020.6
20260502090518 68 184 0.9 7.0 0.00 0.00 0.00 48 1020.7
20260502071019 58 9 3.5 9.6 0.00 0.00 0.00 55 1020.6
20260502070519 58 180 3.5 9.6 0.00 0.00 0.00 54 1020.6
20260502070037 58 139 3.5 9.6 0.00 0.00 0.00 55 1020.7
20260502065519 57 137 1.7 10.4 0.00 0.00 0.00 56 1020.8
20260502065020 57 8 3.5 12.2 0.00 0.00 0.00 57 1020.8
20260502064543 56 151 5.2 12.2 0.00 0.00 0.00 56 1020.7
20260502064019 56 175 4.3 13.0 0.00 0.00 0.00 57 1020.8
20260502063518 56 115 3.5 13.0 0.00 0.00 0.00 56 1020.7
20260502063039 56 126 4.3 13.0 0.00 0.00 0.00 56 1020.7
20260502062516 56 139 5.2 13.0 0.00 0.00 0.00 57 1020.8
20260502062016 55 140 3.5 9.6 0.00 0.00 0.00 57 1020.7
20260502061535 55 140 4.3 10.4 0.00 0.00 0.00 58 1020.6
20260502061018 55 139 3.5 10.4 0.00 0.00 0.00 58 1020.5
20260502060519 55 139 2.6 10.4 0.00 0.00 0.00 58 1020.7
20260502060038 55 271 3.5 10.4 0.00 0.00 0.00 58 1020.6
20260502055518 54 271 3.5 11.3 0.00 0.00 0.00 58 1020.8
20260502055016 54 271 2.6 13.9 0.00 0.00 0.00 58 1020.8
20260502054540 54 271 4.3 13.9 0.00 0.00 0.00 58 1020.8
20260502054018 54 271 3.5 12.2 0.00 0.00 0.00 58 1020.9
20260502053518 54 271 3.5 9.6 0.00 0.00 0.00 59 1020.7
20260502053047 54 271 5.2 11.3 0.00 0.00 0.00 59 1020.7
20260502052520 54 271 4.3 12.2 0.00 0.00 0.00 59 1020.9
20260502052019 54 271 3.5 12.2 0.00 0.00 0.00 59 1020.8
20260502051546 54 271 4.3 11.3 0.00 0.00 0.00 58 1020.7
20260502051018 54 271 3.5 11.3 0.00 0.00 0.00 58 1020.8
20260502050518 54 271 3.5 10.4 0.00 0.00 0.00 58 1020.7
20260502050037 54 271 3.5 10.4 0.00 0.00 0.00 58 1020.8
20260502045518 53 271 4.3 10.4 0.00 0.00 0.00 58 1020.8
20260502045018 53 271 1.7 11.3 0.00 0.00 0.00 58 1020.8
20260502044535 53 271 4.3 11.3 0.00 0.00 0.00 58 1020.8
20260502044018 53 271 3.5 8.7 0.00 0.00 0.00 58 1020.7
20260502043518 53 271 2.6 8.7 0.00 0.00 0.00 58 1020.7
20260502043034 53 271 2.6 7.8 0.00 0.00 0.00 58 1020.9
20260502042518 53 271 2.6 7.8 0.00 0.00 0.00 58 1020.8
20260502042017 53 271 2.6 9.6 0.00 0.00 0.00 58 1020.9
20260502041540 53 271 1.7 9.6 0.00 0.00 0.00 58 1020.8
20260502041018 54 271 3.5 9.6 0.00 0.00 0.00 58 1020.8
20260502040519 53 271 2.6 10.4 0.00 0.00 0.00 58 1020.9
20260502040037 54 271 3.5 10.4 0.00 0.00 0.00 58 1020.9
20260502035517 53 271 2.6 8.7 0.00 0.00 0.00 58 1020.9
20260502035018 53 271 2.6 8.7 0.00 0.00 0.00 58 1020.9
20260502034537 54 271 1.7 8.7 0.00 0.00 0.00 57 1020.9
20260502034023 54 271 2.6 8.7 0.00 0.00 0.00 57 1021.0
20260502033519 54 271 1.7 7.0 0.00 0.00 0.00 57 1020.9
20260502033039 54 271 2.6 7.0 0.00 0.00 0.00 57 1020.9
20260502032521 54 271 3.5 7.0 0.00 0.00 0.00 57 1021.0
20260502032018 54 271 1.7 7.0 0.00 0.00 0.00 57 1021.0
20260502031541 54 271 1.7 8.7 0.00 0.00 0.00 57 1021.0
20260502031018 54 271 2.6 8.7 0.00 0.00 0.00 57 1020.9
20260502030521 54 271 2.6 9.6 0.00 0.00 0.00 56 1021.0
20260502030037 54 271 3.5 9.6 0.00 0.00 0.00 57 1021.0
20260502025518 54 271 2.6 9.6 0.00 0.00 0.00 56 1021.0
20260502025018 54 271 1.7 9.6 0.00 0.00 0.00 56 1021.0
20260502024537 54 271 3.5 9.6 0.00 0.00 0.00 56 1021.1
20260502024021 54 271 3.5 9.6 0.00 0.00 0.00 56 1021.1
20260502023518 54 271 2.6 7.8 0.00 0.00 0.00 57 1021.1
20260502023036 54 271 2.6 7.8 0.00 0.00 0.00 57 1021.2
20260502022521 54 271 1.7 7.0 0.00 0.00 0.00 57 1021.3
20260502022024 54 271 1.7 7.8 0.00 0.00 0.00 57 1021.3
20260502021542 54 271 2.6 7.8 0.00 0.00 0.00 57 1021.2
20260502021018 54 271 1.7 7.0 0.00 0.00 0.00 57 1021.3
20260502020518 54 271 2.6 7.0 0.00 0.00 0.00 57 1021.4
20260502020041 54 271 2.6 7.0 0.00 0.00 0.00 57 1021.4
20260502015518 54 271 2.6 7.8 0.00 0.00 0.00 57 1021.3
20260502015022 54 271 2.6 8.7 0.00 0.00 0.00 57 1021.3
20260502014538 55 271 2.6 8.7 0.00 0.00 0.00 56 1021.4
20260502014017 55 271 1.7 5.2 0.00 0.00 0.00 56 1021.6
20260502013518 55 271 1.7 5.2 0.00 0.00 0.00 56 1021.7
20260502013044 55 271 1.7 5.2 0.00 0.00 0.00 56 1021.7
20260502012516 55 271 2.6 7.8 0.00 0.00 0.00 56 1021.6
20260502012019 55 271 1.7 7.8 0.00 0.00 0.00 56 1021.7
20260502011556 55 271 2.6 7.0 0.00 0.00 0.00 57 1021.9
20260502011018 55 271 1.7 7.0 0.00 0.00 0.00 57 1022.0
20260502010519 55 271 2.6 5.2 0.00 0.00 0.00 57 1021.9
20260502010044 55 271 1.7 5.2 0.00 0.00 0.00 57 1022.0
20260502005519 55 271 0.9 5.2 0.00 0.00 0.00 57 1022.1
20260502005018 54 271 1.7 5.2 0.00 0.00 0.00 57 1022.1
20260502004556 54 0 1.7 5.2 0.00 0.00 0.00 58 1022.1
20260502004019 54 271 0.9 4.3 0.00 0.00 0.00 58 1022.3
20260502003517 54 271 0.0 3.5 0.00 0.00 0.00 57 1022.3
20260502003038 55 0 0.0 2.6 0.00 0.00 0.00 57 1022.3
20260502002517 55 271 0.9 4.3 0.00 0.00 0.00 57 1022.4
20260502002018 55 271 0.9 7.0 0.00 0.00 0.00 56 1022.2
20260502001538 55 0 0.9 7.0 0.00 0.00 0.00 56 1022.3
20260502001020 55 271 1.7 8.7 0.00 0.00 0.00 56 1022.3
20260502000517 55 271 1.7 8.7 0.00 0.00 0.00 57 1022.4
20260502000040 55 271 0.9 5.2 0.00 0.00 0.00 57 1022.4
20260501235521 55 271 0.9 5.2 0.00 0.00 0.00 57 1022.5
20260501235018 55 271 0.0 4.3 0.00 0.00 0.00 58 1022.6
20260501234540 55 271 0.9 3.5 0.00 0.00 0.00 58 1022.7
20260501234017 54 271 0.9 3.5 0.00 0.00 0.00 58 1022.7
20260501233518 55 0 0.0 4.3 0.00 0.00 0.00 57 1022.7
20260501233040 55 271 0.0 4.3 0.00 0.00 0.00 57 1022.7
20260501232518 55 271 0.9 4.3 0.00 0.00 0.00 57 1022.7
20260501232023 56 271 0.9 4.3 0.00 0.00 0.00 56 1022.8
20260501231547 56 271 0.9 4.3 0.00 0.00 0.00 57 1022.8
20260501231018 55 120 0.9 4.3 0.00 0.00 0.00 57 1022.7
20260501230516 56 271 1.7 4.3 0.00 0.00 0.00 56 1022.8
20260501230035 56 128 0.9 4.3 0.00 0.00 0.00 56 1022.7
20260501225518 55 131 0.9 3.5 0.00 0.00 0.00 57 1022.8
20260501225023 55 91 0.9 4.3 0.00 0.00 0.00 57 1022.8
20260501224538 55 0 0.9 4.3 0.00 0.00 0.00 57 1022.9
20260501224018 55 131 0.9 4.3 0.00 0.00 0.00 57 1022.9
20260501223517 55 103 0.9 4.3 0.00 0.00 0.00 57 1022.9
20260501223037 55 98 0.9 4.3 0.00 0.00 0.00 57 1022.9
20260501222518 55 123 0.0 4.3 0.00 0.00 0.00 57 1022.9
20260501222018 55 149 0.0 5.2 0.00 0.00 0.00 57 1023.0
20260501221554 55 109 0.9 5.2 0.00 0.00 0.00 57 1023.0
20260501221021 55 0 0.9 2.6 0.00 0.00 0.00 58 1023.0
20260501220519 55 132 0.0 2.6 0.00 0.00 0.00 57 1023.2
20260501220048 55 128 0.9 2.6 0.00 0.00 0.00 58 1023.1
20260501215519 55 0 0.0 7.0 0.00 0.00 0.00 57 1023.2
20260501215018 55 0 0.0 7.0 0.00 0.00 0.00 58 1023.1
20260501214539 55 124 0.9 7.0 0.00 0.00 0.00 58 1023.1
20260501214022 55 0 0.0 2.6 0.00 0.00 0.00 57 1023.1
20260501213521 55 0 0.0 3.5 0.00 0.00 0.00 58 1023.2
20260501213041 55 113 0.9 3.5 0.00 0.00 0.00 58 1023.3
20260501212518 54 128 0.0 3.5 0.00 0.00 0.00 60 1023.2
20260501212019 53 0 0.0 3.5 0.00 0.00 0.00 61 1023.3
20260501211537 52 131 0.9 3.5 0.00 0.00 0.00 64 1023.2
20260501211019 51 0 0.0 1.7 0.00 0.00 0.00 65 1023.1
20260501210518 51 0 0.0 0.9 0.00 0.00 0.00 66 1023.2
20260501210036 51 0 0.0 0.9 0.00 0.00 0.00 66 1023.1
20260501205518 50 0 0.0 1.7 0.00 0.00 0.00 67 1023.0
20260501205018 50 0 0.0 1.7 0.00 0.00 0.00 67 1023.0
20260501204535 50 0 0.0 1.7 0.00 0.00 0.00 67 1023.1
20260501204022 51 0 0.0 0.9 0.00 0.00 0.00 66 1023.1
20260501203518 51 0 0.0 0.9 0.00 0.00 0.00 64 1023.2
20260501203038 52 0 0.0 0.9 0.00 0.00 0.00 64 1023.2
20260501202520 52 0 0.0 0.9 0.00 0.00 0.00 62 1023.3
20260501202021 53 280 0.0 0.9 0.00 0.00 0.00 60 1023.3
20260501201538 54 0 0.0 0.9 0.00 0.00 0.00 59 1023.4
20260501201018 54 0 0.0 0.9 0.00 0.00 0.00 58 1023.2
20260501200527 55 0 0.0 0.9 0.00 0.00 0.00 57 1023.2
20260501200037 55 280 0.0 0.9 0.00 0.00 0.00 56 1023.3
20260501195517 56 0 0.0 0.9 0.00 0.00 0.00 54 1023.2
20260501195018 57 0 0.0 0.9 0.00 0.00 0.00 52 1023.2
20260501194545 58 0 0.0 1.7 0.00 0.00 0.00 50 1023.2
20260501194017 59 0 0.0 1.7 0.00 0.00 0.00 48 1023.2
20260501193517 60 15 0.0 6.1 0.00 0.00 0.00 47 1023.2
20260501193038 60 43 0.9 6.1 0.00 0.00 0.00 46 1023.3
20260501192518 61 0 0.0 5.2 0.00 0.00 0.00 46 1023.5
20260501192018 61 0 0.0 5.2 0.00 0.00 0.00 45 1023.2
20260501191537 61 66 0.9 5.2 0.00 0.00 0.00 45 1023.1
20260501191017 61 109 1.7 5.2 0.00 0.00 0.00 44 1023.1
20260501190521 61 271 0.9 4.3 0.00 0.00 0.00 45 1023.1
20260501190051 61 107 0.9 2.6 0.00 0.00 0.00 45 1023.0
20260501185517 62 132 0.9 3.5 0.00 0.00 0.00 44 1023.1
20260501185017 62 0 0.0 3.5 0.00 0.00 0.00 44 1023.1
20260501184536 62 119 0.9 3.5 0.00 0.00 0.00 44 1023.2
20260501184019 62 271 0.9 4.3 0.00 0.00 0.00 43 1023.1
20260501183515 63 137 0.9 4.3 0.00 0.00 0.00 42 1023.2
20260501183039 63 240 0.9 4.3 0.00 0.00 0.00 41 1023.2
20260501182518 64 0 0.0 4.3 0.00 0.00 0.00 41 1023.1
20260501182016 64 148 0.9 6.1 0.00 0.00 0.00 41 1023.2
20260501181538 64 0 0.9 7.0 0.00 0.00 0.00 41 1023.1
20260501181018 64 176 0.9 7.0 0.00 0.00 0.00 41 1023.1
20260501180520 64 135 0.9 5.2 0.00 0.00 0.00 40 1023.0
20260501180037 65 0 0.9 5.2 0.00 0.00 0.00 40 1023.0
20260501175518 65 150 0.9 6.1 0.00 0.00 0.00 39 1023.0
20260501175019 65 104 1.7 6.1 0.00 0.00 0.00 39 1023.0
20260501174537 65 0 1.7 6.1 0.00 0.00 0.00 38 1023.0
20260501174020 66 101 1.7 7.0 0.00 0.00 0.00 38 1023.0
20260501173518 66 122 2.6 7.0 0.00 0.00 0.00 37 1023.0
20260501173037 66 107 1.7 9.6 0.00 0.00 0.00 37 1023.1
20260501172517 66 147 2.6 9.6 0.00 0.00 0.00 37 1023.2
20260501172019 67 92 2.6 8.7 0.00 0.00 0.00 36 1023.1
20260501171542 67 86 2.6 7.8 0.00 0.00 0.00 37 1023.2
20260501171021 67 107 1.7 5.2 0.00 0.00 0.00 36 1023.1
20260501170521 68 121 1.7 7.0 0.00 0.00 0.00 36 1023.1
20260501170038 68 31 2.6 7.8 0.00 0.00 0.00 35 1023.2
20260501165518 69 126 1.7 10.4 0.00 0.00 0.00 37 1023.1
20260501165019 69 119 3.5 10.4 0.00 0.00 0.00 34 1023.1
20260501164537 69 285 3.5 9.6 0.00 0.00 0.00 35 1023.3
20260501164020 69 189 2.6 7.8 0.00 0.00 0.00 36 1023.1